Hourly Data Report for October 02, 2017

All times are specified in Local Standard Time (LST). Add 1 hour to adjust for Daylight Saving Time where and when it is observed.

GREENWOOD A
NOVA SCOTIA

44°59'00.000" N
64°55'00.000" W
28.00 m
8202000
71397
YZX

Download Data

Hourly Data (October 2017)
Hourly Data Report for October 2, 2017
Temp Definition
°C
Dew Point Temp Definition
°C
Rel Hum Definition
%
Wind Dir Definition
10's deg

Wind Spd Definition
km/h
Visibility Definition
km
Stn Press Definition
kPa
Hmdx Definition


Wind Chill Definition


Weather Definition


TIME
00:00 6.6 5.4 92   0 24.1 101.71     Clear
01:00 6.4 5.6 95   0 24.1 101.73     Clear
02:00 5.7 4.2 90   0 24.1 101.70     Clear
03:00 5.5 4.5 93   0 24.1 101.71     Clear
04:00 6.3 5.1 92 28 4 24.1 101.76     Clear
05:00 4.9 3.8 93 31 4 24.1 101.89     Clear
06:00 5.0 3.9 93 22 4 24.1 101.97     Clear
07:00 8.1 5.7 85 35 7 24.1 102.05     Clear
08:00 10.6 7.4 81 36 6 24.1 102.11     Mainly Clear
09:00 12.4 5.7 64 3 22 24.1 102.21     Mainly Clear
10:00 12.4 5.0 61 4 20 24.1 102.27     Mainly Clear
11:00 12.8 3.8 54 2 28 24.1 102.32     Mostly Cloudy
12:00 13.1 4.2 55 35 24 24.1 102.36     Mostly Cloudy
13:00 12.7 2.9 51 1 30 24.1 102.39     Mostly Cloudy
14:00 13.2 3.3 51 3 28 24.1 102.44     Mainly Clear
15:00 11.9 2.6 53 3 32 24.1 102.54     Mainly Clear
16:00 11.2 3.2 58 5 26 24.1 102.57     Mainly Clear
17:00 11.0 3.2 59 3 30 24.1 102.68     Mainly Clear
18:00 10.0 3.2 63 4 17 24.1 102.78     Mainly Clear
19:00 8.3 3.3 71 2 11 24.1 102.87     Clear
20:00 7.3 2.8 73 2 9 24.1 102.98     Clear
21:00 5.3 2.7 83   0 24.1 103.05     Clear
22:00 3.8 2.2 89   0 24.1 103.11     Clear
23:00 3.4 2.3 92 26 6 24.1 103.17     Clear

Notes on Data Quality.

Legend

  • E = Estimated
  • M = Missing
  • NA = Not Available
  • ‡ = Partner data that is not subject to review by the National Climate Archives
Date modified: